Cook, MN

10:36 PM CDT on April 27, 2017 (GMT -0500)
Cook Municipal

Weather History for KCQM - October, 2012

Change the Weather History Date:

Monday, October 29, 2012

  Actual Average Record
Temperature  
Mean Temperature 35 °F -  
Max Temperature 42 °F 41 °F 62 °F (2007)
Min Temperature 28 °F 27 °F 12 °F (2013)
Degree Days  
Heating Degree Days 30    
Moisture  
Dew Point 30 °F    
Average Humidity 86    
Maximum Humidity 100    
Minimum Humidity 61    
Precipitation  
Precipitation 0.00 in - - ()
Sea Level Pressure  
Sea Level Pressure 30.31 in    
Wind  
Wind Speed 1 mph (East)    
Max Wind Speed 7 mph    
Max Gust Speed -    
Visibility 8 miles    
Events Snow    
Averages and records for this station are not official NWS values.
T = Trace of Precipitation, MM = Missing Value Source: NWS Daily Summary

Daily Weather History Graph

Daily Weather History Graph

Search for Another Location

Airport or City:

Trip Planner

Search our weather history database for the weather conditions in past years. The results will help you decide how hot, cold, wet, or windy it might be!

Date:

Astronomy

Oct. 29, 2012 Rise Set
Actual Time 7:51 AM CDT 5:56 PM CDT
Civil Twilight 7:19 AM CDT 6:28 PM CDT
Nautical Twilight 6:42 AM CDT 7:05 PM CDT
Astronomical Twilight 6:07 AM CDT 7:40 PM CDT
Moon 5:45 PM CDT (10/29) 7:44 AM CDT (10/29)
Length of Visible Light 11h 09m
Length of Day
10h 05m
Full, 100% of the Moon is Illuminated
Oct 29
Full
Oct 29
Full
Nov 6
Last Quarter
Nov 13
New
Nov 20
First Quarter

Hourly Weather History & Observations

Time (CDT) Temp. Windchill Dew Point Humidity Pressure Visibility Wind Dir Wind Speed Gust Speed Precip Events Conditions
12:16 AM 28.4 °F - 26.6 °F 93% 30.31 in 10.0 mi Calm Calm - N/A   Overcast
12:36 AM 28.4 °F - 26.6 °F 93% 30.32 in 10.0 mi Calm Calm - N/A   Overcast
12:56 AM 28.4 °F - 28.4 °F 100% 30.32 in 10.0 mi Calm Calm - N/A   Overcast
1:17 AM 28.4 °F - 28.4 °F 100% 30.32 in 7.0 mi Calm Calm - N/A   Overcast
1:37 AM 28.4 °F - 28.4 °F 100% 30.32 in 7.0 mi Calm Calm - N/A   Overcast
1:56 AM 28.4 °F 24.6 °F 28.4 °F 100% 30.32 in 7.0 mi East 3.5 mph - N/A   Overcast
2:17 AM 28.4 °F - 28.4 °F 100% 30.32 in 7.0 mi Calm Calm - N/A Snow Light Snow
2:37 AM 28.4 °F - 28.4 °F 100% 30.32 in 7.0 mi Calm Calm - N/A   Overcast
2:56 AM 28.4 °F 24.6 °F 28.4 °F 100% 30.31 in 7.0 mi East 3.5 mph - N/A Snow Light Snow
3:17 AM 28.4 °F - 28.4 °F 100% 30.32 in 7.0 mi Calm Calm - N/A Snow Light Snow
3:37 AM 28.4 °F 24.6 °F 28.4 °F 100% 30.31 in 7.0 mi ENE 3.5 mph - N/A   Overcast
3:56 AM 28.4 °F - 28.4 °F 100% 30.31 in 7.0 mi Calm Calm - N/A   Overcast
4:17 AM 28.4 °F - 28.4 °F 100% 30.31 in 4.0 mi Calm Calm - N/A Snow Light Snow
4:37 AM 28.4 °F - 28.4 °F 100% 30.31 in 2.5 mi Calm Calm - N/A Snow Light Snow
4:56 AM 28.4 °F 24.6 °F 28.4 °F 100% 30.31 in 5.0 mi ENE 3.5 mph - N/A   Overcast
5:17 AM 30.2 °F - 28.4 °F 93% 30.31 in 7.0 mi Calm Calm - N/A   Overcast
5:56 AM 30.2 °F - 30.2 °F 100% 30.31 in 5.0 mi Calm Calm - N/A   Overcast
6:17 AM 30.2 °F - 30.2 °F 100% 30.31 in 5.0 mi Calm Calm - N/A   Overcast
6:36 AM 30.2 °F - 30.2 °F 100% 30.31 in 5.0 mi Calm Calm - N/A   Overcast
6:56 AM 30.2 °F - 30.2 °F 100% 30.31 in 5.0 mi Calm Calm - N/A Snow Light Snow
7:17 AM 30.2 °F - 30.2 °F 100% 30.32 in 5.0 mi Calm Calm - N/A Snow Light Snow
7:36 AM 30.2 °F - 30.2 °F 100% 30.32 in 5.0 mi Calm Calm - N/A Snow Light Snow
7:56 AM 30.2 °F - 30.2 °F 100% 30.32 in 5.0 mi Calm Calm - N/A Snow Light Snow
8:16 AM 32.0 °F - 30.2 °F 93% 30.32 in 2.0 mi Calm Calm - N/A Snow Light Snow
8:36 AM 32.0 °F - 30.2 °F 93% 30.32 in 3.0 mi Calm Calm - N/A Snow Light Snow
8:57 AM 32.0 °F 28.7 °F 30.2 °F 93% 30.32 in 7.0 mi East 3.5 mph - N/A Snow Light Snow
9:16 AM 33.8 °F 30.8 °F 30.2 °F 87% 30.32 in 7.0 mi East 3.5 mph - N/A   Overcast
9:37 AM 33.8 °F - 30.2 °F 87% 30.32 in 10.0 mi Calm Calm - N/A   Mostly Cloudy
9:57 AM 33.8 °F 30.8 °F 30.2 °F 87% 30.32 in 10.0 mi East 3.5 mph - N/A   Scattered Clouds
10:16 AM 33.8 °F - 30.2 °F 87% 30.32 in 10.0 mi Calm Calm - N/A   Clear
10:37 AM 35.6 °F 31.7 °F 30.2 °F 81% 30.32 in 10.0 mi ESE 4.6 mph - N/A   Scattered Clouds
10:57 AM 35.6 °F 30.7 °F 30.2 °F 81% 30.32 in 10.0 mi SE 5.8 mph - N/A   Mostly Cloudy
11:16 AM 35.6 °F 31.7 °F 30.2 °F 81% 30.32 in 10.0 mi ESE 4.6 mph - N/A   Overcast
11:37 AM 35.6 °F 29.9 °F 30.2 °F 81% 30.32 in 10.0 mi ESE 6.9 mph - N/A   Overcast
11:57 AM 37.4 °F 32.8 °F 32.0 °F 81% 30.32 in 10.0 mi SE 5.8 mph - N/A   Mostly Cloudy
12:16 PM 37.4 °F - 32.0 °F 81% 30.32 in 10.0 mi Calm Calm - N/A   Mostly Cloudy
12:37 PM 37.4 °F 33.8 °F 32.0 °F 81% 30.32 in 10.0 mi SE 4.6 mph - N/A   Mostly Cloudy
1:16 PM 39.2 °F 35.9 °F 32.0 °F 75% 30.31 in 10.0 mi SE 4.6 mph - N/A   Overcast
1:37 PM 39.2 °F - 33.8 °F 81% 30.30 in 10.0 mi Calm Calm - N/A   Overcast
1:57 PM 41.0 °F 39.0 °F 32.0 °F 70% 30.30 in 10.0 mi SE 3.5 mph - N/A   Mostly Cloudy
2:16 PM 41.0 °F - 32.0 °F 70% 30.30 in 10.0 mi Calm Calm - N/A   Clear
2:37 PM 41.0 °F - 32.0 °F 70% 30.30 in 10.0 mi Calm Calm - N/A   Mostly Cloudy
2:57 PM 41.0 °F 39.0 °F 30.2 °F 65% 30.30 in 10.0 mi SE 3.5 mph - N/A   Overcast
3:16 PM 41.0 °F 39.0 °F 30.2 °F 65% 30.29 in 10.0 mi ESE 3.5 mph - N/A   Overcast
3:37 PM 42.8 °F - 30.2 °F 61% 30.29 in 10.0 mi Calm Calm - N/A   Overcast
3:57 PM 42.8 °F 41.1 °F 30.2 °F 61% 30.29 in 10.0 mi East 3.5 mph - N/A   Overcast
4:16 PM 41.0 °F - 30.2 °F 65% 30.29 in 10.0 mi Calm Calm - N/A   Overcast
4:37 PM 41.0 °F - 30.2 °F 65% 30.29 in 10.0 mi Calm Calm - N/A   Overcast
4:57 PM 39.2 °F - 32.0 °F 75% 30.29 in 10.0 mi Calm Calm - N/A   Overcast
5:16 PM 39.2 °F 37.0 °F 32.0 °F 75% 30.29 in 10.0 mi East 3.5 mph - N/A   Overcast
5:37 PM 39.2 °F - 30.2 °F 70% 30.29 in 10.0 mi Calm Calm - N/A   Overcast
5:57 PM 39.2 °F - 30.2 °F 70% 30.29 in 10.0 mi Calm Calm - N/A   Overcast
6:16 PM 37.4 °F - 30.2 °F 75% 30.29 in 10.0 mi Calm Calm - N/A   Overcast
6:37 PM 37.4 °F 34.9 °F 30.2 °F 75% 30.29 in 10.0 mi ENE 3.5 mph - N/A   Overcast
6:56 PM 37.4 °F - 30.2 °F 75% 30.29 in 10.0 mi Calm Calm - N/A   Overcast
7:16 PM 37.4 °F - 30.2 °F 75% 30.29 in 10.0 mi Calm Calm - N/A   Overcast
7:37 PM 37.4 °F - 30.2 °F 75% 30.29 in 10.0 mi Calm Calm - N/A   Overcast
7:56 PM 35.6 °F - 28.4 °F 75% 30.29 in 10.0 mi Calm Calm - N/A   Scattered Clouds
8:16 PM 33.8 °F - 28.4 °F 81% 30.29 in 10.0 mi Calm Calm - N/A   Mostly Cloudy
8:37 PM 32.0 °F - 28.4 °F 87% 30.29 in 10.0 mi Calm Calm - N/A   Mostly Cloudy
8:57 PM 32.0 °F 28.7 °F 28.4 °F 87% 30.29 in 10.0 mi East 3.5 mph - N/A   Scattered Clouds
9:16 PM 32.0 °F - 28.4 °F 87% 30.29 in 10.0 mi Calm Calm - N/A   Clear
9:37 PM 30.2 °F - 28.4 °F 93% 30.29 in 10.0 mi Calm Calm - N/A   Clear
9:56 PM 30.2 °F 26.7 °F 26.6 °F 86% 30.29 in 10.0 mi East 3.5 mph - N/A   Clear
10:16 PM 30.2 °F - 26.6 °F 86% 30.29 in 10.0 mi Calm Calm - N/A   Clear
10:37 PM 28.4 °F - 26.6 °F 93% 30.29 in 10.0 mi Calm Calm - N/A   Clear
10:56 PM 28.4 °F - 26.6 °F 93% 30.29 in 10.0 mi Calm Calm - N/A   Clear
11:16 PM 30.2 °F - 26.6 °F 86% 30.29 in 10.0 mi Calm Calm - N/A   Clear
11:37 PM 28.4 °F - 26.6 °F 93% 30.29 in 10.0 mi Calm Calm - N/A   Clear
11:56 PM 28.4 °F 24.6 °F 26.6 °F 93% 30.29 in 10.0 mi ENE 3.5 mph - N/A   Clear